CES551 ZSPD-EGLL

Flight info

Callsign CES551
Flight time N/A
Altitude 30100
Route PIK95D PIKAS G330 PIMOL A593 OMUDI/K0920S0980 A593 DALIM W157 BEKDO/K0915S0950 W157 VYK G212 SOTMU/K0909S0980 B339 POLHO Y520 SERNA/K0909F320 R497 UPLIV/K0911F340 R497 TODES B228 HMN L870 DIKEP/K0900F360 L870 RANVA/N0484F360 L870 RESMO DCT ETPIG DCT GORAX DCT ALASA DCT IZZEX N872 PAM L980 LOGAN
Aircraft B77W/H-SDE1E2E3FGHIJ2J3J4J5M1RWXY/LB1D1

Departure

Time N/A
Airport Shanghai Pudong International Airport (ZSPD)

Arrival

Time 2026-05-04 16:05
Airport London Heathrow Airport (EGLL)
Time Latitude Longitude Altitude Speed Heading
2026-05-04 15:42 51.82445 2.79338 35987 ft 464 kts 261°
2026-05-04 15:43 51.82155 2.74982 35986 ft 464 kts 261°
2026-05-04 15:43 51.81459 2.64612 36000 ft 464 kts 261°
2026-05-04 15:44 51.80746 2.54244 36003 ft 465 kts 261°
2026-05-04 15:44 51.80022 2.43869 36000 ft 465 kts 261°
2026-05-04 15:45 51.79291 2.33497 35789 ft 467 kts 261°
2026-05-04 15:45 51.78914 2.28201 34985 ft 476 kts 261°
2026-05-04 15:45 51.78538 2.22920 34173 ft 475 kts 261°
2026-05-04 15:45 51.78186 2.17644 33439 ft 470 kts 261°
2026-05-04 15:46 51.77878 2.12411 32449 ft 469 kts 262°
2026-05-04 15:46 51.77576 2.07110 31253 ft 475 kts 262°
2026-05-04 15:46 51.77275 2.01811 30435 ft 473 kts 262°
2026-05-04 15:46 51.76971 1.96551 29683 ft 468 kts 262°
2026-05-04 15:47 51.76662 1.91347 28926 ft 463 kts 262°
2026-05-04 15:47 51.76352 1.86212 28242 ft 458 kts 262°
2026-05-04 15:47 51.76040 1.81115 27577 ft 453 kts 262°
2026-05-04 15:47 51.75730 1.76084 26916 ft 448 kts 262°
2026-05-04 15:48 51.75425 1.71171 26262 ft 445 kts 262°
2026-05-04 15:48 51.75117 1.66230 25617 ft 441 kts 262°
2026-05-04 15:48 51.74499 1.56461 24342 ft 435 kts 262°
2026-05-04 15:49 51.74185 1.51617 23709 ft 432 kts 262°
2026-05-04 15:49 51.73872 1.46799 22985 ft 430 kts 263°
2026-05-04 15:49 51.73559 1.42028 22301 ft 427 kts 263°
2026-05-04 15:49 51.73248 1.37295 21673 ft 423 kts 263°
2026-05-04 15:50 51.72937 1.32595 21026 ft 420 kts 262°
2026-05-04 15:50 51.72627 1.27929 20414 ft 417 kts 262°
2026-05-04 15:50 51.72317 1.23292 19805 ft 414 kts 262°
2026-05-04 15:50 51.72007 1.18684 19199 ft 412 kts 262°
2026-05-04 15:51 51.71696 1.14104 18601 ft 410 kts 262°
2026-05-04 15:51 51.71384 1.09542 17957 ft 409 kts 262°
2026-05-04 15:51 51.71075 1.05001 17301 ft 407 kts 262°
2026-05-04 15:51 51.70766 1.00478 16685 ft 404 kts 262°
2026-05-04 15:52 51.70454 0.95994 16077 ft 401 kts 263°
2026-05-04 15:52 51.70146 0.91548 15573 ft 396 kts 263°
2026-05-04 15:52 51.69839 0.87168 15090 ft 390 kts 263°
2026-05-04 15:52 51.69541 0.82910 14626 ft 384 kts 263°
2026-05-04 15:53 51.69244 0.78659 14164 ft 380 kts 263°
2026-05-04 15:53 51.68950 0.74452 13686 ft 375 kts 263°
2026-05-04 15:53 51.68656 0.70309 13187 ft 371 kts 263°
2026-05-04 15:53 51.68363 0.66198 12711 ft 366 kts 263°
2026-05-04 15:54 51.68073 0.62156 12265 ft 362 kts 263°
2026-05-04 15:54 51.67786 0.58157 11817 ft 357 kts 263°
2026-05-04 15:54 51.67500 0.54197 11386 ft 353 kts 263°
2026-05-04 15:54 51.67217 0.50315 10956 ft 350 kts 263°
2026-05-04 15:55 51.66931 0.46406 10530 ft 347 kts 263°
2026-05-04 15:55 51.66648 0.42561 10085 ft 345 kts 263°
2026-05-04 15:55 51.66367 0.38753 9765 ft 338 kts 263°
2026-05-04 15:55 51.66092 0.35041 9530 ft 328 kts 263°
2026-05-04 15:56 51.65827 0.31466 9432 ft 315 kts 263°
2026-05-04 15:56 51.65572 0.28054 9316 ft 296 kts 263°
2026-05-04 15:56 51.65336 0.24892 9020 ft 275 kts 263°
2026-05-04 15:56 51.65107 0.21843 8748 ft 272 kts 262°
2026-05-04 15:57 51.64883 0.18873 8639 ft 262 kts 262°
2026-05-04 15:57 51.64667 0.16021 8559 ft 252 kts 262°
2026-05-04 15:57 51.64552 0.13265 8386 ft 244 kts 270°
2026-05-04 15:57 51.64501 0.10593 8085 ft 235 kts 255°
2026-05-04 15:58 51.63667 0.08384 7607 ft 236 kts 220°
2026-05-04 15:58 51.62368 0.06791 7193 ft 236 kts 219°
2026-05-04 15:58 51.61112 0.05082 6894 ft 236 kts 222°
2026-05-04 15:58 51.59896 0.03328 6645 ft 234 kts 223°
2026-05-04 15:59 51.58702 0.01579 6409 ft 231 kts 223°
2026-05-04 15:59 51.57518 -0.00171 6154 ft 232 kts 224°
2026-05-04 15:59 51.56349 -0.01922 5868 ft 235 kts 223°
2026-05-04 15:59 51.55158 -0.03717 5617 ft 234 kts 223°
2026-05-04 16:00 51.53986 -0.05486 5342 ft 236 kts 224°
2026-05-04 16:00 51.52761 -0.07341 4952 ft 242 kts 224°
2026-05-04 16:00 51.51528 -0.09212 4549 ft 245 kts 224°
2026-05-04 16:00 51.50281 -0.11102 4116 ft 249 kts 224°
2026-05-04 16:01 51.49024 -0.13006 3664 ft 254 kts 224°
2026-05-04 16:01 51.47728 -0.14970 3238 ft 257 kts 225°
2026-05-04 16:01 51.46735 -0.17246 2995 ft 243 kts 254°
2026-05-04 16:01 51.46568 -0.19789 3007 ft 218 kts 274°
2026-05-04 16:02 51.46586 -0.22186 2738 ft 216 kts 270°
2026-05-04 16:02 51.46554 -0.24590 2464 ft 215 kts 271°
2026-05-04 16:02 51.46535 -0.29204 1881 ft 193 kts 272°
2026-05-04 16:03 51.46529 -0.31256 1632 ft 180 kts 272°
2026-05-04 16:03 51.46524 -0.33155 1406 ft 164 kts 272°
2026-05-04 16:03 51.46519 -0.34908 1206 ft 154 kts 272°
2026-05-04 16:03 51.46515 -0.36645 1000 ft 156 kts 272°
2026-05-04 16:04 51.46511 -0.38394 778 ft 155 kts 272°
2026-05-04 16:04 51.46486 -0.41704 372 ft 147 kts 275°
2026-05-04 16:04 51.46492 -0.43379 157 ft 149 kts 273°
2026-05-04 16:05 51.46491 -0.44971 94 ft 134 kts 269°
2026-05-04 16:05 51.46483 -0.46156 95 ft 66 kts 269°
2026-05-04 16:05 51.46406 -0.46686 97 ft 10 kts 245°
2026-05-04 16:06 51.46354 -0.46747 95 ft 10 kts 168°
2026-05-04 16:06 51.46322 -0.46426 91 ft 12 kts 90°
2026-05-04 16:07 51.46322 -0.46224 92 ft 17 kts 90°
2026-05-04 16:07 51.46316 -0.45444 96 ft 17 kts 90°
2026-05-04 16:08 51.46317 -0.45328 94 ft 0 kts 90°
2026-05-04 16:08 51.46317 -0.45317 95 ft 0 kts 90°
2026-05-04 16:09 51.46317 -0.45210 94 ft 10 kts 90°
2026-05-04 16:09 51.46318 -0.44888 94 ft 15 kts 89°
2026-05-04 16:10 51.46327 -0.44527 94 ft 16 kts 89°
2026-05-04 16:11 51.46243 -0.44248 94 ft 9 kts 207°
2026-05-04 16:11 51.46185 -0.44290 92 ft 9 kts 201°
2026-05-04 16:12 51.46125 -0.44204 94 ft 0 kts 113°